x

Mt Desert Rock, Me (mdrm1) Weather Station

3:00pm - Sun 22nd Oct 2017 All times are EDT. -4 hours from GMT.

  • Wind
    20mph, 21mph gusts
  • Air Temp 54°f
  • Sea Pressure 1031.1mb
  • Mt Desert Rock, Me
  • Mt Desert Rock, Me

More Historic Weather Station data

Upgrade to MSW Pro to gain access to the past 30 days of data for over 8000 Wavebouys and Weather Stations around the globe.

Join

Comparision Forecast

View Surf forecast
   
Sun 10/22 3:00pm 20 21 mph 1031.1mb 54f
2:00pm 20 21 mph 1030.9mb 54f
1:00pm 20 22 mph 1031.2mb 54f
12:00pm 21 22 mph 1031.2mb 54f
11:00am 21 22 mph 1031.8mb 54f
10:00am 21 23 mph 1031.5mb 54f
9:00am 22 23 mph 1031mb 54f
8:00am 20 22 mph 1030.3mb 54f
7:00am 18 20 mph 1029.8mb 55f
6:00am 15 16 mph 1028.9mb 55f
5:00am 13 14 mph 1028.4mb 55f
4:00am 10 10 mph 1028.1mb 55f
3:00am 9 9 mph 1027.6mb 55f
2:00am 6 6 mph 1027.5mb 55f
1:00am 3 3 mph 1027.2mb 55f
12:00am 2 2 mph 1026.9mb 55f
Sat 10/21 11:00pm 6 6 mph 1026.8mb 56f
10:00pm 7 7 mph 1026.7mb 56f
9:00pm 8 8 mph 1026.5mb 56f
8:00pm 10 11 mph 1026.1mb 55f
7:00pm 11 11 mph 1025.9mb 56f
6:00pm 8 9 mph 1025.7mb 56f
5:00pm 9 9 mph 1025.1mb 57f
4:00pm 6 6 mph 1025.2mb 59f
3:00pm 7 7 mph 1024.8mb 59f
2:00pm 7 7 mph 1024.8mb 59f
1:00pm 5 5 mph 1024.7mb 59f
12:00pm  -  2 mph 1024.9mb 57f
11:00am 2 2 mph 1024.9mb 55f
10:00am 5 6 mph 1024.9mb 54f
9:00am 7 7 mph 1024.7mb 55f
8:00am 5 5 mph 1024mb 55f
7:00am 8 8 mph 1022.9mb 54f
6:00am 8 9 mph 1022.2mb 55f
5:00am 9 10 mph 1021.7mb 55f
4:00am 6 7 mph 1021mb 55f
3:00am 9 10 mph 1020.4mb 55f
2:00am 10 10 mph 1020.4mb 55f
1:00am 14 14 mph 1019.9mb 55f
12:00am 6 7 mph 1019.4mb 55f
Fri 10/20 11:00pm 13 14 mph 1018.6mb 57f
10:00pm 20 22 mph 1017.4mb 57f
9:00pm 15 16 mph 1016.6mb 57f
8:00pm 15 16 mph 1015.4mb 59f
7:00pm 18 20 mph 1014.5mb 58f
6:00pm 17 18 mph 1013.8mb 58f
5:00pm 17 17 mph 1013mb 59f
4:00pm 17 18 mph 1012.5mb 60f
3:00pm 15 16 mph 1012.4mb 59f
2:00pm 21 22 mph 1012.2mb 58f
1:00pm 13 14 mph 1012.9mb 57f
12:00pm 9 10 mph 1013.9mb 57f
11:00am 15 16 mph 1014.3mb 56f
10:00am 18 20 mph 1014.7mb 57f
9:00am 11 13 mph 1014.3mb 56f
8:00am 11 13 mph 1014.1mb 56f
7:00am 14 15 mph 1013.5mb 55f
6:00am 15 16 mph 1012.8mb 55f
5:00am 17 18 mph 1012.2mb 55f
4:00am 20 23 mph 1012mb 56f
3:00am 20 23 mph 1012mb 56f
2:00am 24 25 mph 1012.1mb 56f
1:00am 28 30 mph 1012.3mb 57f
12:00am 32 36 mph 1012.2mb 58f
Thu 10/19 11:00pm 38 44 mph 1012.2mb 58f
10:00pm 34 40 mph 1012.8mb 58f
9:00pm 34 38 mph 1012.9mb 58f
8:00pm 34 40 mph 1013.3mb 58f
7:00pm 32 36 mph 1014.3mb 58f
6:00pm 31 33 mph 1014.9mb 58f
5:00pm 31 34 mph 1015.6mb 58f
4:00pm 29 31 mph 1016.8mb 58f
3:00pm 24 26 mph 1018.1mb 58f
2:00pm 26 29 mph 1019.2mb 57f
1:00pm 29 34 mph 1020.2mb 56f
12:00pm 26 29 mph 1021.3mb 56f
11:00am 28 29 mph 1021.9mb 57f
10:00am 24 26 mph 1022.7mb 57f
9:00am 21 22 mph 1023mb 57f
8:00am 20 22 mph 1023.3mb 58f
7:00am 20 21 mph 1023.3mb 57f
6:00am 18 20 mph 1023.4mb 57f
5:00am 16 17 mph 1023.6mb 57f
4:00am 16 17 mph 1023.6mb 57f
3:00am 14 15 mph 1023.8mb 56f
2:00am 15 16 mph 1024.1mb 56f
1:00am 15 15 mph 1024.3mb 57f
12:00am 15 16 mph 1024.5mb 57f
Wed 10/18 11:00pm 13 14 mph 1024.6mb 56f
10:00pm 14 14 mph 1024.3mb 57f
9:00pm 16 16 mph 1024.1mb 56f